RH
58 59 55 50 54 55 57 60 67 72 54 40 45 45 57 50 55 53 50 69 76 78 76 75 77 74 71 70 71 73 72 74 75 74 73 73 74 77
55 57 54 51 53 55 62 59 63 75 76 46 47 48 45 46 56 49 56 85 82 82 79 81 82 81 78 75 73 73 77 76 74 73 72 72 71 72
56 56 57 53 52 51 57 61 65 69 80 60 50 48 49 50 52 56 64 59 57 79 79 80 84 84 82 81 80 78 80 76 72 72 73 74 75 74
56 58 57 45 55 54 55 58 61 62 74 73 58 58 58 54 52 62 57 48 58 68 76 78 84 85 84 82 84 85 87 83 81 82 78 78 79 78
60 59 56 53 57 54 54 56 59 56 65 77 72 61 62 58 62 62 67 65 60 76 79 77 76 80 85 84 84 86 89 86 89 86 81 77 74 73
62 63 57 56 56 60 60 63 60 68 69 76 74 69 63 58 65 70 68 65 64 53 64 70 76 79 82 84 84 86 88 88 86 81 83 85 88 86
60 60 61 66 66 63 56 63 68 73 73 75 78 77 74 70 70 63 72 66 59 59 61 58 70 71 71 79 84 88 89 88 86 83 81 83 89 91
62 60 60 68 69 68 64 65 66 75 83 80 77 77 73 67 66 72 74 76 77 57 74 68 64 64 66 67 78 85 86 86 86 85 86 87 89 84
57 62 62 54 64 60 64 66 65 64 64 67 79 76 77 70 71 74 76 78 73 64 70 71 66 72 65 66 80 84 86 88 87 87 88 90 89 89
55 60 66 65 62 65 66 70 69 69 69 64 66 68 72 70 72 70 71 73 69 69 63 72 59 71 69 70 80 85 87 86 88 90 88 85 94 95
52 60 66 68 68 68 68 75 74 75 68 73 74 74 73 73 75 79 87 87 77 69 63 70 70 76 69 73 75 81 84 87 88 90 93 95 95 95
54 59 70 66 66 67 70 75 80 75 72 74 77 77 74 76 77 77 80 86 81 80 70 81 74 71 78 64 82 76 82 86 86 88 90 92 94 93
56 58 57 65 64 63 62 66 73 68 73 75 82 81 78 79 82 78 77 83 88 84 67 79 97 77 81 78 74 79 93 92 89 88 85 86 89 92
63 63 77 71 66 64 61 62 64 63 65 77 84 87 89 85 82 82 80 81 79 78 71 74 100 89 88 87 87 80 82 91 95 94 92 87 86 89
54 56 61 63 65 64 63 62 62 62 69 84 88 89 89 86 88 88 87 85 84 82 76 81 93 97 89 88 87 84 91 96 96 96 90 93 93 92
70 69 71 71 64 63 64 64 63 66 73 78 82 83 86 94 94 92 95 94 94 91 88 87 95 96 91 90 93 88 87 100 100 97 95 88 90 90
94 97 94 89 84 76 80 78 76 75 79 78 83 86 88 90 93 95 96 97 96 93 89 88 86 89 95 95 98 89 88 97 97 97 99 100 91 92
95 96 94 92 91 82 80 78 77 79 80 82 83 87 91 94 95 95 94 96 93 90 91 90 90 96 97 93 94 92 95 96 99 99 99 100 99 93
80 87 93 88 87 89 85 85 85 82 85 89 90 92 92 92 92 94 89 95 93 90 91 86 92 96 96 90 76 88 99 100 100 100 99 99 100 98
78 82 89 90 88 93 95 94 91 88 91 91 92 93 95 95 96 95 92 94 93 90 89 85 93 94 96 87 90 81 93 100 99 99 100 99 99 93
81 81 77 80 87 88 92 97 95 94 94 96 96 96 96 97 96 94 95 87 86 90 90 88 86 74 91 96 98 92 88 96 99 100 100 100 99 96
84 87 83 84 85 89 91 96 97 98 98 98 96 95 95 96 96 93 91 91 87 86 88 91 91 94 100 98 92 91 91 96 99 100 99 90 99 99
90 90 93 94 93 94 91 95 98 98 98 97 98 96 95 96 94 94 93 95 92 92 91 94 94 93 92 91 93 96 95 95 98 97 98 98 97 92
Wind_Speed
9 8 7 7 7 7 8 8 9 12 11 10 7 7 6 9 10 11 13 13 17 18 17 13 11 11 11 10 9 10 10 9 10 10 12 13 13 13
8 10 10 8 9 8 8 9 9 10 14 9 10 12 12 10 10 14 13 13 14 16 16 15 13 12 12 12 12 11 11 11 11 13 14 15 16 14
11 12 13 11 9 9 8 9 9 9 12 13 10 11 15 14 12 10 10 11 10 13 15 15 15 15 13 12 13 12 13 12 11 13 14 15 17 16
14 13 13 9 11 11 9 12 10 11 10 17 13 10 12 14 14 13 11 11 10 12 14 15 14 15 15 14 13 13 12 10 10 11 12 13 16 16
14 14 14 12 12 10 11 10 9 10 10 10 14 10 10 10 13 12 10 11 8 10 12 11 12 13 15 15 14 13 12 11 11 11 12 15 17 17
13 14 14 13 13 13 11 12 12 10 10 10 11 11 10 10 9 10 10 7 7 7 8 10 12 11 13 15 13 11 11 11 12 13 12 14 15 16
15 14 13 15 19 17 10 12 12 10 10 10 10 9 10 9 10 8 9 10 10 8 8 7 5 4 4 6 9 10 12 13 14 14 15 15 15 16
15 16 15 18 17 22 23 25 19 13 13 11 11 12 15 9 8 8 8 8 8 3 3 7 6 8 7 6 9 12 14 15 15 15 15 15 15 17
16 16 15 11 15 13 18 21 22 24 24 15 15 15 14 12 10 10 9 8 9 7 6 9 6 8 8 7 12 14 14 14 15 14 14 15 16 15
16 17 17 15 14 14 12 13 14 14 14 11 14 15 13 12 11 11 11 10 8 7 6 8 7 8 8 8 15 16 15 15 13 12 14 17 15 12
15 16 15 14 18 24 13 14 14 14 15 20 22 23 21 21 15 7 8 8 9 8 4 7 5 7 7 9 8 12 15 15 11 11 11 9 9 10
14 14 21 19 23 24 15 13 13 14 12 11 10 15 18 15 19 13 8 9 7 6 2 3 4 4 5 5 3 5 4 6 5 6 9 10 9 5
11 10 9 21 24 24 22 13 13 13 13 11 9 8 8 9 7 7 8 7 6 7 4 3 2 4 4 7 7 5 2 3 3 3 5 8 8 6
12 10 10 21 25 25 19 21 22 20 10 8 7 8 8 7 7 7 9 8 7 8 7 5 4 4 6 6 8 6 5 3 3 3 2 6 9 8
11 16 26 24 25 22 24 24 21 9 9 7 7 8 7 8 7 4 6 6 6 7 8 6 8 7 9 9 7 8 8 2 3 2 3 3 2 2
18 14 18 22 23 19 16 14 8 8 8 8 7 7 5 4 6 5 4 4 4 6 9 7 9 10 10 8 7 11 9 5 1 3 4 4 3 3
14 9 8 9 9 9 9 9 8 8 8 8 7 7 7 7 7 6 5 5 7 7 7 5 5 10 9 9 9 9 10 8 6 7 3 3 4 3
12 9 8 8 8 8 8 9 8 11 8 7 7 7 7 7 7 5 5 6 8 8 8 6 3 4 4 8 17 11 9 8 7 6 4 3 5 3
9 9 8 7 8 8 8 8 9 8 8 7 8 8 7 7 8 7 5 6 7 8 8 6 6 7 9 11 7 19 8 6 6 6 5 5 3 1
8 8 8 7 7 7 6 7 7 7 7 7 7 7 7 7 7 7 7 8 8 8 8 7 7 8 9 11 9 7 16 8 6 6 4 2 1 1
8 8 8 8 8 7 7 7 8 7 7 7 7 7 7 7 8 8 8 13 12 9 10 9 8 15 8 6 7 8 5 11 8 5 3 4 3 3
8 8 8 8 8 8 8 8 8 8 7 7 7 7 7 7 7 8 8 9 9 9 9 6 6 6 8 8 10 11 3 3 5 5 5 1 4 5
9 9 8 8 7 7 8 8 7 6 6 6 6 5 6 7 7 8 8 8 8 8 8 7 6 7 9 10 13 7 6 6 4 4 2 4 2 4
Wind_Direction
267 267 265 268 265 266 268 267 272 287 282 280 281 280 294 311 318 314 301 297 294 292 285 281 273 275 282 283 280 276 272 273 276 273 274 269 259 246
266 265 264 261 262 260 257 263 259 265 279 271 266 281 287 284 284 289 285 289 284 285 280 269 264 265 271 273 273 268 256 257 262 266 262 266 264 260
271 270 265 263 264 265 262 263 264 261 270 282 273 271 285 288 286 278 276 281 277 270 277 274 268 257 251 260 270 264 250 243 253 265 269 267 267 265
273 268 264 265 259 261 261 263 260 264 261 277 282 277 264 286 284 279 276 274 272 271 274 276 272 263 251 246 257 257 247 243 251 253 267 266 265 269
275 267 261 262 264 264 262 263 262 262 259 257 277 278 270 273 281 275 270 269 263 263 273 278 278 270 259 245 246 249 247 256 241 246 255 264 263 259
268 259 257 254 254 259 257 258 262 261 258 257 266 275 271 268 263 278 284 269 279 286 268 267 274 272 263 251 245 246 251 252 256 261 264 261 258 262
269 264 254 247 248 251 254 257 256 255 257 259 263 269 266 265 261 277 283 290 285 271 274 277 281 291 280 271 256 246 245 247 252 259 268 269 268 270
272 270 261 255 255 259 262 260 257 253 253 257 260 258 260 258 264 266 273 279 289 270 302 289 297 287 279 272 259 252 257 259 255 259 262 267 263 276
276 272 269 258 255 255 265 267 263 260 258 257 249 250 257 253 255 262 259 262 270 279 298 291 294 288 287 275 261 262 261 258 263 265 264 264 268 264
275 272 265 261 259 260 261 262 260 256 254 257 257 255 248 249 240 254 259 262 268 267 274 280 293 282 287 283 275 268 262 260 262 264 273 272 261 261
276 267 260 260 261 266 265 260 263 260 259 259 259 257 255 250 237 241 245 244 254 263 254 281 283 304 299 285 272 278 271 262 254 267 267 256 260 273
280 271 262 262 264 265 260 256 257 261 264 255 247 259 256 246 242 241 252 245 248 278 277 243 307 321 308 282 305 332 340 293 273 293 293 278 268 259
281 278 258 257 265 268 268 262 254 263 266 255 244 251 252 239 232 229 227 222 220 244 241 295 262 273 250 290 290 307 286 282 277 266 281 289 286 265
282 272 270 272 273 272 272 268 267 269 266 248 246 247 247 234 227 222 224 219 222 237 256 233 257 257 267 275 279 297 289 226 233 254 282 291 285 283
281 274 275 268 265 268 271 271 269 264 262 251 238 240 238 240 240 210 217 222 227 235 258 240 244 258 256 257 267 277 282 276 274 259 262 253 282 301
277 271 265 271 264 265 265 261 253 250 248 250 245 244 236 221 226 223 227 223 249 248 244 237 241 245 250 248 264 270 263 249 168 250 239 253 259 249
273 260 250 247 252 252 250 253 257 246 244 247 246 244 237 228 225 201 213 215 239 247 245 227 229 246 240 243 249 252 264 251 235 241 201 245 258 241
295 273 265 254 242 242 243 246 237 244 236 238 240 242 242 230 222 197 203 230 246 244 239 244 225 256 241 239 228 251 243 249 231 216 199 216 255 229
305 294 269 263 256 234 239 240 243 234 232 228 232 228 231 236 243 223 200 213 237 247 238 243 242 219 241 252 253 213 247 233 222 205 192 195 203 176
301 306 305 284 274 262 247 242 243 244 230 229 230 231 224 227 227 222 209 215 227 241 246 238 230 235 241 255 271 265 210 223 216 225 189 157 139 67
307 304 302 301 291 279 265 248 239 240 237 231 229 231 222 216 224 226 220 224 233 238 250 246 230 231 246 252 251 249 238 227 220 205 159 158 155 181
310 299 294 290 293 290 279 263 252 242 237 234 225 226 224 226 230 226 225 227 234 243 255 240 237 228 237 252 268 254 205 175 196 191 181 151 171 202
322 315 308 289 280 284 286 290 255 245 235 232 228 221 225 233 231 233 230 226 235 242 239 247 233 233 250 248 249 243 199 176 161 149 111 156 133 94